SL-14 DEB, 45274

Orbit data source: Space-Track

SL-14 DEB, 45274 is space debris in LEO originally from a launch on Thu, 15 Aug 1991 UTC launched from the Plesetsk Missile And Space Complex (PKMTR). Debris objects in space refer to the collection of defunct objects orbiting the Earth. Examples of debris include non-operational satellites, rocket bodies, and fragments generated from explosions, collisions, or faulty payload assembly.

Loading next visibility...
Identifier
45274, 1991-056L
Orbit
LEO
Country
Flag of CISCIS
Related business
Manufacturer
Unknown
Mission
Spacecraft
Bus & Motor
Unknown
Mass
Unknown
Launch date (UTC)
1991-08-15 (35 years ago)
Launch vehicle
Unknown
Launch site
Plesetsk Missile And Space Complex (PKMTR)
Object type
Payload
Rocket body
Debris
Shape & HBR
Unknown shape, 0.2 m
Radar Cross Section
Medium (>0.1 m² and <1 m²)

Expand to show TLE details & history
Last TLE update: 6 hours ago

TLE from 6 hours ago
0 SL-14 DEB
1 45274U 91056L   26176.21754903  .00000195  00000-0  46755-3 0  9991
2 45274  82.5375 129.3371 0028993 120.8268 239.5714 13.17752478305787
Epoch: 2026-06-25T05:13Z
TLE epoch observation values (Epoch: 2026-06-25T05:13:16.236Z)
Latitude
0.00004°
Longitude
137.65588°
Altitude
1,207.292 km
Speed
7.245 km/s
True Right ascension
08h 37m 20s
True Declination
0° 00' 00"
Sunlit
Object was in daylight at epoch
Visualization orbit readout
Latitude
Unknown
Longitude
Unknown
Altitude
Unknown
Speed
Unknown
Apparent Right ascension
Unknown
Apparent Declination
Unknown
Sunlit
N/A
Visualization observer readout
Local Sidereal Time
22:44:48
Azimuth
Unknown
Elevation
Unknown
Doppler factor
Unknown
Orbital elements
Apogee altitude
1,212.505 km
Perigee altitude
1,168.617 km
Semi-major axis
7,568.698 km
Eccentricity
0.0029
Inclination
82.5375°
RAAN
129.3371°
Arg. of periapsis
120.8268°
True anomaly
239.28545°
Mean anomaly
239.5714°
Eccentric anomaly
239.42837°
Mean motion
3.29618 °/min
Orbital period
109.22 mins
BSTAR
0.00046755
Loading maneuver chart data...
Computing Atmospheric mass density...
Loading historical data...
Loading historical data...
Loading historical data...
Loading historical data...
Loading historical data...
Loading historical data...
Loading historical data...

Documentation

Showing up to 5 results
|